Home > Weather > Mackay > Past weeks

Flag for Australia Past Weather in Mackay, Queensland, Australia — Yesterday and Last 2 Weeks

Now
69 °F

Mild.


Feels Like: 69 °F
Forecast: 63 / 79 °F
Wind: 6 mph from Northwest

Location: Mackay Mo

Current Time: Jul 23, 2016 at 11:21:57 PM

Latest Report: Jul 23, 2016 at 10:00 PM


Visibility: N/A

Pressure: 29.96 "Hg

Humidity: 98%

Dew Point: 68 °F

Location of MackayLocation

Past Weather in Mackay — Graph

°F

Mackay Temperature Yesterday

Maximum temperature yesterday: 73 °F (at 4:00 PM)
Minimum temperature yesterday: 62 °F (at 7:00 AM)
Average temperature yesterday: 67 °F

High & Low Weather Summary for the Past Weeks

 TemperatureHumidityPressure
High79 °F (Jul 23, 1:00 PM)100% (Jul 15, 9:00 PM)30.19 "Hg (Jul 15, 9:00 PM)
Low52 °F (Jul 9, 6:00 AM)39% (Jul 14, 10:00 AM)29.85 "Hg (Jul 16, 4:00 AM)
Average66 °F90%30.05 "Hg
* Reported Jul 8 10:00 PM — Jul 23 10:00 PM, Mackay, Weather by CustomWeather, © 2016

Note: Actual official high and low records may vary slightly from our data, if they occured in-between our weather recording intervals... More about our weather records

Advertising

Mackay Weather History for the Previous 24 Hours

Scroll right to see more
 ConditionsComfort  
Time TempWeatherWind HumidityBarometerVisibility
10:00 PM
Sat, Jul 23
69 °FMild.6 mph98%29.96 "HgN/A
9:00 PM68 °FMild.6 mph97%29.96 "HgN/A
7:00 PM69 °FMild.6 mph96%29.92 "HgN/A
6:00 PM70 °FMild.7 mph93%29.90 "HgN/A
4:00 PM76 °FMild.8 mph71%29.89 "HgN/A
3:00 PM77 °FWarm.8 mph70%29.90 "HgN/A
1:00 PM79 °FWarm.8 mph68%29.93 "HgN/A
12:00 PM78 °FPassing clouds.8 mph75%29.96 "HgN/A
10:00 AM73 °FMild.6 mph91%30.00 "HgN/A
9:00 AM69 °FScattered clouds.3 mph96%30.01 "HgN/A
7:00 AM64 °FMild.3 mph99%29.98 "HgN/A
6:00 AM64 °FPassing clouds.6 mph99%29.96 "HgN/A
4:00 AM63 °FMild.6 mph100%29.94 "HgN/A
3:00 AM63 °FLow clouds.7 mph100%29.94 "HgN/A
1:00 AM64 °FMild.5 mph99%29.96 "HgN/A
12:00 AM65 °FLow clouds.6 mph99%29.97 "HgN/A
Weather by CustomWeather, © 2016

See weather overviewHow to use our weather pages